Mackinac Island, MI

6:22 AM EDT on May 27, 2018 (GMT -0400)
Mackinac Island

Weather History for KMCD - June, 2013

Change the Weather History Date:

Sunday, June 2, 2013

  Actual Average Record
Temperature  
Mean Temperature 50 °F -  
Max Temperature 59 °F 60 °F 79 °F (1990)
Min Temperature 42 °F 44 °F 37 °F (1982)
Degree Days  
Heating Degree Days 14    
Moisture  
Dew Point 44 °F    
Average Humidity 83    
Maximum Humidity 96    
Minimum Humidity 65    
Precipitation  
Precipitation 0.01 in - - ()
Sea Level Pressure  
Sea Level Pressure 29.79 in    
Wind  
Wind Speed 9 mph (WNW)    
Max Wind Speed 17 mph    
Max Gust Speed 24 mph    
Visibility 9 miles    
Events Rain    
Averages and records for this station are not official NWS values.
T = Trace of Precipitation, MM = Missing Value Source: NWS Daily Summary

Daily Weather History Graph

Daily Weather History Graph

Search for Another Location

Airport or City:

Astronomy

Jun. 02, 2013 Rise Set
Actual Time 5:51 AM EDT 9:22 PM EDT
Civil Twilight 5:13 AM EDT 9:59 PM EDT
Nautical Twilight 4:24 AM EDT 10:49 PM EDT
Astronomical Twilight 3:19 AM EDT 11:54 PM EDT
Moon 2:34 AM EDT (6/2) 3:36 PM EDT (6/2)
Length of Visible Light 16h 46m
Length of Day
15h 31m
Waning Crescent, 31% of the Moon is Illuminated
Jun 2
Waning Crescent
Jun 8
New
Jun 16
First Quarter
Jun 23
Full
Jun 30
Last Quarter

Hourly Weather History & Observations

Time (EDT) Temp. Windchill Dew Point Humidity Pressure Visibility Wind Dir Wind Speed Gust Speed Precip Events Conditions
12:14 AM 58.6 °F - 56.3 °F 92% 29.63 in 10.0 mi SE 9.2 mph - N/A   Scattered Clouds
12:34 AM 59.2 °F - 56.5 °F 91% 29.63 in 10.0 mi SE 6.9 mph - N/A   Mostly Cloudy
12:54 AM 59.4 °F - 56.3 °F 90% 29.64 in 10.0 mi Calm Calm - N/A   Mostly Cloudy
1:15 AM 59.0 °F - 56.3 °F 91% 29.64 in 10.0 mi South 5.8 mph - N/A   Mostly Cloudy
1:34 AM 59.9 °F - 56.7 °F 89% 29.62 in 10.0 mi WSW 6.9 mph - N/A Rain Light Rain
1:54 AM 58.8 °F - 55.8 °F 90% 29.64 in 10.0 mi West 9.2 mph - N/A   Overcast
2:15 AM 57.7 °F - 55.4 °F 92% 29.63 in 10.0 mi WSW 9.2 mph - N/A   Overcast
2:34 AM 56.5 °F - 54.5 °F 93% 29.62 in 7.0 mi West 8.1 mph - N/A Rain Light Rain
2:54 AM 56.3 °F - 54.5 °F 94% 29.62 in 7.0 mi West 5.8 mph - N/A Rain Light Rain
3:15 AM 56.1 °F - 54.5 °F 94% 29.61 in 5.0 mi SW 4.6 mph - N/A Rain Light Rain
3:34 AM 54.9 °F - 53.4 °F 95% 29.60 in 1.5 mi WSW 8.1 mph - N/A Rain Light Rain
3:54 AM 54.0 °F - 52.7 °F 95% 29.60 in 0.2 mi West 5.8 mph - N/A Rain Light Rain
4:15 AM 53.8 °F - 52.7 °F 96% 29.59 in 0.5 mi West 5.8 mph - N/A Rain Light Rain
4:34 AM 54.0 °F - 52.7 °F 95% 29.59 in 1.0 mi Calm Calm - N/A Rain Light Rain
4:54 AM 52.5 °F - 51.3 °F 95% 29.59 in 0.8 mi SW 4.6 mph - N/A   Light Drizzle
5:14 AM 51.8 °F - 50.5 °F 95% 29.61 in 0.8 mi SW 10.4 mph 16.1 mph N/A   Overcast
5:34 AM 51.3 °F - 50.2 °F 96% 29.62 in 10.0 mi WSW 8.1 mph - N/A   Overcast
5:54 AM 53.1 °F - 52.0 °F 96% 29.61 in 10.0 mi WNW 10.4 mph - N/A   Overcast
6:14 AM 52.5 °F - 51.4 °F 96% 29.61 in 10.0 mi NW 9.2 mph 16.1 mph N/A   Overcast
6:34 AM 50.7 °F - 49.5 °F 95% 29.62 in 10.0 mi NW 10.4 mph - N/A   Overcast
6:54 AM 49.1 °F - 47.8 °F 95% 29.63 in 10.0 mi WNW 8.1 mph - N/A Rain Light Rain
7:14 AM 47.8 °F - 46.4 °F 95% 29.64 in 7.0 mi WNW 10.4 mph - N/A Rain Light Rain
7:34 AM 46.9 °F - 45.5 °F 95% 29.64 in 10.0 mi WNW 11.5 mph - N/A Rain Light Rain
7:54 AM 46.4 °F 41.1 °F 44.8 °F 94% 29.65 in 7.0 mi WNW 11.5 mph - 0.01 in Rain Light Rain
8:14 AM 46.4 °F 40.4 °F 44.8 °F 94% 29.66 in 10.0 mi WNW 13.8 mph 18.4 mph N/A Rain Light Rain
8:34 AM 46.0 °F 40.6 °F 44.6 °F 95% 29.67 in 5.0 mi WNW 11.5 mph - N/A Rain Light Rain
8:54 AM 46.0 °F 41.0 °F 44.6 °F 95% 29.68 in 10.0 mi WNW 10.4 mph 16.1 mph N/A   Overcast
9:14 AM 46.2 °F 41.2 °F 44.6 °F 94% 29.70 in 10.0 mi WNW 10.4 mph - N/A   Overcast
9:34 AM 46.4 °F 41.1 °F 44.6 °F 93% 29.71 in 10.0 mi WNW 11.5 mph 17.3 mph N/A   Overcast
9:54 AM 45.9 °F 39.7 °F 44.2 °F 94% 29.72 in 10.0 mi WNW 13.8 mph 20.7 mph N/A   Overcast
10:14 AM 45.7 °F 39.8 °F 43.9 °F 93% 29.73 in 10.0 mi WNW 12.7 mph 23.0 mph N/A   Overcast
10:34 AM 45.9 °F 40.0 °F 43.9 °F 93% 29.74 in 10.0 mi WNW 12.7 mph 19.6 mph N/A   Overcast
10:54 AM 45.9 °F 39.7 °F 43.7 °F 92% 29.75 in 10.0 mi WNW 13.8 mph 19.6 mph N/A   Overcast
11:14 AM 45.9 °F 40.4 °F 43.7 °F 92% 29.76 in 10.0 mi WNW 11.5 mph 20.7 mph N/A   Overcast
11:34 AM 45.9 °F 39.1 °F 43.3 °F 91% 29.77 in 10.0 mi WNW 16.1 mph 21.9 mph N/A   Overcast
11:54 AM 46.2 °F 41.2 °F 43.2 °F 89% 29.78 in 10.0 mi WNW 10.4 mph 23.0 mph N/A   Overcast
12:14 PM 46.2 °F 40.5 °F 42.8 °F 88% 29.80 in 10.0 mi WNW 12.7 mph 17.3 mph N/A   Overcast
12:35 PM 46.4 °F 40.4 °F 42.4 °F 86% 29.81 in 10.0 mi WNW 13.8 mph 21.9 mph N/A   Overcast
12:54 PM 47.1 °F - 42.6 °F 84% 29.81 in 10.0 mi WNW 11.5 mph 24.2 mph N/A   Overcast
1:14 PM 47.5 °F - 42.6 °F 83% 29.82 in 10.0 mi WNW 12.7 mph 19.6 mph N/A   Overcast
1:34 PM 47.8 °F - 42.1 °F 80% 29.83 in 10.0 mi WNW 17.3 mph 21.9 mph N/A   Overcast
1:54 PM 48.2 °F - 41.9 °F 79% 29.83 in 10.0 mi NW 10.4 mph 19.6 mph N/A   Overcast
2:14 PM 49.1 °F - 42.1 °F 77% 29.84 in 10.0 mi NW 12.7 mph 20.7 mph N/A   Overcast
2:35 PM 48.0 °F - 41.4 °F 78% 29.85 in 10.0 mi NW 12.7 mph 24.2 mph N/A   Overcast
2:54 PM 49.1 °F - 41.2 °F 74% 29.86 in 10.0 mi WNW 12.7 mph 18.4 mph N/A   Overcast
3:14 PM 49.1 °F - 41.2 °F 74% 29.87 in 10.0 mi NW 12.7 mph 19.6 mph N/A   Overcast
3:35 PM 50.4 °F - 40.6 °F 69% 29.88 in 10.0 mi WNW 11.5 mph 19.6 mph N/A   Overcast
3:54 PM 50.0 °F - 40.1 °F 69% 29.89 in 10.0 mi NW 11.5 mph 19.6 mph N/A   Overcast
4:14 PM 49.3 °F - 39.9 °F 70% 29.91 in 10.0 mi WNW 10.4 mph 20.7 mph N/A   Overcast
4:35 PM 49.5 °F - 40.1 °F 70% 29.91 in 10.0 mi WNW 15.0 mph 21.9 mph N/A   Overcast
4:54 PM 49.5 °F - 39.4 °F 68% 29.92 in 10.0 mi WNW 15.0 mph 21.9 mph N/A   Overcast
5:14 PM 48.7 °F - 39.0 °F 69% 29.92 in 10.0 mi WNW 10.4 mph 23.0 mph N/A   Overcast
5:35 PM 48.2 °F - 38.7 °F 70% 29.92 in 10.0 mi NW 13.8 mph 19.6 mph N/A   Overcast
5:54 PM 48.2 °F - 38.7 °F 70% 29.93 in 10.0 mi NW 8.1 mph 16.1 mph N/A   Overcast
6:14 PM 48.2 °F - 37.9 °F 68% 29.94 in 10.0 mi NW 10.4 mph 19.6 mph N/A   Overcast
6:34 PM 47.8 °F - 37.6 °F 68% 29.94 in 10.0 mi NW 12.7 mph 17.3 mph N/A   Overcast
6:54 PM 47.7 °F - 36.9 °F 66% 29.95 in 10.0 mi NW 10.4 mph 18.4 mph N/A   Overcast
7:14 PM 47.5 °F - 36.7 °F 66% 29.95 in 10.0 mi WNW 10.4 mph 19.6 mph N/A   Overcast
7:34 PM 47.8 °F - 36.7 °F 65% 29.95 in 10.0 mi NW 8.1 mph 17.3 mph N/A   Overcast
7:54 PM 47.3 °F - 36.5 °F 66% 29.96 in 10.0 mi NW 9.2 mph 16.1 mph N/A   Mostly Cloudy
8:14 PM 47.3 °F - 36.0 °F 65% 29.97 in 10.0 mi WNW 11.5 mph - N/A   Scattered Clouds
8:34 PM 46.6 °F - 36.3 °F 67% 29.97 in 10.0 mi NW 11.5 mph - N/A   Scattered Clouds
8:54 PM 46.2 °F 41.7 °F 36.0 °F 67% 29.97 in 10.0 mi NW 9.2 mph - N/A   Clear
9:14 PM 45.5 °F 41.8 °F 36.3 °F 70% 29.97 in 10.0 mi NW 6.9 mph - N/A   Clear
9:34 PM 45.0 °F 40.1 °F 36.5 °F 72% 29.97 in 10.0 mi NW 9.2 mph - N/A   Clear
9:54 PM 44.8 °F 40.4 °F 36.5 °F 73% 29.98 in 10.0 mi NW 8.1 mph - N/A   Clear
10:14 PM 44.1 °F 39.5 °F 36.5 °F 75% 29.99 in 10.0 mi WNW 8.1 mph - N/A   Clear
10:34 PM 43.9 °F 39.3 °F 36.7 °F 76% 29.99 in 10.0 mi WNW 8.1 mph - N/A   Clear
10:54 PM 43.7 °F 39.1 °F 36.7 °F 76% 30.00 in 10.0 mi WNW 8.1 mph - N/A   Clear
11:14 PM 43.3 °F 38.6 °F 36.3 °F 76% 30.00 in 10.0 mi NW 8.1 mph - N/A   Clear
11:34 PM 42.8 °F 38.0 °F 36.5 °F 78% 29.99 in 10.0 mi WNW 8.1 mph - N/A   Clear
11:54 PM 42.8 °F 37.5 °F 35.2 °F 75% 29.99 in 10.0 mi WNW 9.2 mph - N/A   Clear